VTD833 UWSG-UWLL

Flight info

Callsign VTD833
Flight time 1h 18m
Altitude 7000
Route OGRER T789 NEPNI
Aircraft DA42/L-SDFGRY/C

Departure

Time 2026-04-26 10:44
Airport Gagarin International Airport (UWSG)

Arrival

Time 2026-04-26 12:02
Airport Ulyanovsk Baratayevka Airport (UWLL)
Time Latitude Longitude Altitude Speed Heading
2026-04-26 10:03 51.71591 46.16800 105 ft 0 kts 48°
2026-04-26 10:03 51.71590 46.16800 105 ft 0 kts 48°
2026-04-26 10:04 51.71590 46.16799 105 ft 0 kts 49°
2026-04-26 10:07 51.71590 46.16798 105 ft 0 kts 102°
2026-04-26 10:09 51.71590 46.16797 105 ft 0 kts 134°
2026-04-26 10:10 51.71591 46.16797 105 ft 0 kts 139°
2026-04-26 10:12 51.71591 46.16796 105 ft 0 kts 152°
2026-04-26 10:14 51.71592 46.16796 105 ft 0 kts 152°
2026-04-26 10:15 51.71591 46.16796 105 ft 0 kts 45°
2026-04-26 10:18 51.71591 46.16795 105 ft 0 kts 47°
2026-04-26 10:19 51.71591 46.16796 105 ft 0 kts 53°
2026-04-26 10:29 51.71608 46.16828 105 ft 10 kts 47°
2026-04-26 10:29 51.71635 46.16918 105 ft 9 kts 94°
2026-04-26 10:29 51.71632 46.17036 105 ft 12 kts 87°
2026-04-26 10:29 51.71631 46.17152 105 ft 9 kts 91°
2026-04-26 10:30 51.71628 46.17273 105 ft 10 kts 92°
2026-04-26 10:30 51.71626 46.17373 105 ft 6 kts 94°
2026-04-26 10:30 51.71603 46.17423 105 ft 5 kts 160°
2026-04-26 10:30 51.71567 46.17425 105 ft 5 kts 181°
2026-04-26 10:31 51.71534 46.17424 105 ft 5 kts 182°
2026-04-26 10:31 51.71496 46.17422 105 ft 6 kts 181°
2026-04-26 10:31 51.71454 46.17419 105 ft 5 kts 184°
2026-04-26 10:31 51.71417 46.17417 105 ft 5 kts 182°
2026-04-26 10:32 51.71398 46.17415 105 ft 0 kts 181°
2026-04-26 10:32 51.71388 46.17415 105 ft 6 kts 182°
2026-04-26 10:32 51.71369 46.17413 105 ft 0 kts 180°
2026-04-26 10:40 51.71354 46.17413 105 ft 8 kts 181°
2026-04-26 10:40 51.71297 46.17409 105 ft 9 kts 182°
2026-04-26 10:40 51.71258 46.17363 105 ft 9 kts 279°
2026-04-26 10:40 51.71259 46.17343 105 ft 0 kts 265°
2026-04-26 10:41 51.71259 46.17342 105 ft 0 kts 269°
2026-04-26 10:41 51.71259 46.17341 105 ft 0 kts 270°
2026-04-26 10:41 51.71259 46.17339 105 ft 1 kts 271°
2026-04-26 10:43 51.71264 46.17059 102 ft 57 kts 271°
2026-04-26 10:43 51.71309 46.16201 187 ft 87 kts 273°
2026-04-26 10:44 51.71371 46.15200 489 ft 93 kts 263°
2026-04-26 10:44 51.71366 46.14106 864 ft 97 kts 262°
2026-04-26 10:44 51.71356 46.13092 1407 ft 83 kts 267°
2026-04-26 10:44 51.71378 46.12189 1751 ft 80 kts 275°
2026-04-26 10:45 51.71400 46.11319 2079 ft 77 kts 271°
2026-04-26 10:45 51.71418 46.10446 2350 ft 79 kts 270°
2026-04-26 10:45 51.71437 46.09569 2670 ft 78 kts 271°
2026-04-26 10:45 51.71453 46.08695 2950 ft 78 kts 272°
2026-04-26 10:46 51.71473 46.07806 3215 ft 80 kts 272°
2026-04-26 10:46 51.71541 46.06909 3462 ft 83 kts 288°
2026-04-26 10:46 51.71855 46.06106 3740 ft 88 kts 308°
2026-04-26 10:46 51.72409 46.05616 4033 ft 97 kts 335°
2026-04-26 10:47 51.73114 46.05700 4328 ft 112 kts 10°
2026-04-26 10:47 51.73815 46.06344 4643 ft 118 kts 21°
2026-04-26 10:47 51.74514 46.07037 4929 ft 118 kts 21°
2026-04-26 10:47 51.75213 46.07734 5221 ft 118 kts 21°
2026-04-26 10:48 51.75917 46.08437 5514 ft 119 kts 21°
2026-04-26 10:48 51.76624 46.09143 5799 ft 120 kts 20°
2026-04-26 10:48 51.77337 46.09846 6097 ft 120 kts 21°
2026-04-26 10:48 51.78050 46.10556 6380 ft 120 kts 20°
2026-04-26 10:49 51.78764 46.11263 6653 ft 120 kts 20°
2026-04-26 10:49 51.79480 46.11974 6878 ft 124 kts 21°
2026-04-26 10:49 51.80279 46.12758 6893 ft 143 kts 22°
2026-04-26 10:49 51.81162 46.13638 6894 ft 154 kts 23°
2026-04-26 10:50 51.82099 46.14570 6892 ft 161 kts 23°
2026-04-26 10:50 51.82735 46.15204 6893 ft 162 kts 23°
2026-04-26 10:50 51.84034 46.16494 6894 ft 165 kts 23°
2026-04-26 10:50 51.85012 46.17468 6894 ft 165 kts 23°
2026-04-26 10:51 51.85995 46.18449 6891 ft 166 kts 24°
2026-04-26 10:51 51.87951 46.20399 6893 ft 166 kts 23°
2026-04-26 10:51 51.88936 46.21380 6888 ft 166 kts 23°
2026-04-26 10:52 51.89921 46.22362 6892 ft 167 kts 24°
2026-04-26 10:52 51.90908 46.23350 6889 ft 166 kts 24°
2026-04-26 10:52 51.91892 46.24329 6892 ft 165 kts 24°
2026-04-26 10:52 51.92868 46.25307 6888 ft 165 kts 23°
2026-04-26 10:53 51.93840 46.26279 6890 ft 164 kts 23°
2026-04-26 10:53 51.94812 46.27248 6886 ft 164 kts 23°
2026-04-26 10:53 51.95792 46.28227 6890 ft 165 kts 23°
2026-04-26 10:54 51.97749 46.30189 6886 ft 165 kts 24°
2026-04-26 10:54 51.98721 46.31164 6883 ft 164 kts 24°
2026-04-26 10:54 51.99698 46.32140 6884 ft 165 kts 23°
2026-04-26 10:54 52.00672 46.33116 6883 ft 165 kts 23°
2026-04-26 10:55 52.01648 46.34098 6884 ft 165 kts 24°
2026-04-26 10:55 52.02625 46.35081 6876 ft 166 kts 23°
2026-04-26 10:55 52.03603 46.36063 6877 ft 164 kts 23°
2026-04-26 10:55 52.04246 46.36708 6881 ft 164 kts 23°
2026-04-26 10:56 52.05544 46.38013 6877 ft 164 kts 23°
2026-04-26 10:56 52.06513 46.38990 6879 ft 164 kts 23°
2026-04-26 10:56 52.07487 46.39967 6882 ft 165 kts 23°
2026-04-26 10:56 52.08462 46.40951 6880 ft 165 kts 23°
2026-04-26 10:57 52.09438 46.41934 6882 ft 164 kts 23°
2026-04-26 10:57 52.10393 46.42896 6884 ft 163 kts 23°
2026-04-26 10:57 52.11362 46.43872 6883 ft 164 kts 23°
2026-04-26 10:57 52.12335 46.44858 6878 ft 164 kts 24°
2026-04-26 10:58 52.13299 46.45833 6881 ft 163 kts 24°
2026-04-26 10:58 52.14269 46.46808 6883 ft 164 kts 23°
2026-04-26 10:58 52.15242 46.47790 6884 ft 165 kts 24°
2026-04-26 10:58 52.16209 46.48775 6877 ft 163 kts 23°
2026-04-26 10:59 52.17170 46.49744 6877 ft 162 kts 23°
2026-04-26 10:59 52.18134 46.50717 6876 ft 163 kts 23°
2026-04-26 10:59 52.19096 46.51693 6879 ft 164 kts 23°
2026-04-26 10:59 52.20057 46.52667 6882 ft 165 kts 23°
2026-04-26 11:00 52.21037 46.53657 6877 ft 166 kts 24°
2026-04-26 11:00 52.22023 46.54661 6877 ft 167 kts 24°
2026-04-26 11:00 52.23015 46.55664 6875 ft 167 kts 23°
2026-04-26 11:00 52.24000 46.56668 6879 ft 167 kts 24°
2026-04-26 11:01 52.24984 46.57671 6874 ft 166 kts 24°
2026-04-26 11:01 52.25964 46.58669 6877 ft 165 kts 23°
2026-04-26 11:01 52.26938 46.59656 6875 ft 165 kts 24°
2026-04-26 11:01 52.27907 46.60644 6877 ft 164 kts 24°
2026-04-26 11:02 52.28874 46.61629 6879 ft 164 kts 24°
2026-04-26 11:02 52.29842 46.62615 6880 ft 163 kts 23°
2026-04-26 11:02 52.30807 46.63597 6877 ft 164 kts 23°
2026-04-26 11:02 52.31777 46.64586 6872 ft 164 kts 23°
2026-04-26 11:03 52.32748 46.65574 6872 ft 165 kts 23°
2026-04-26 11:03 52.33717 46.66564 6870 ft 164 kts 24°
2026-04-26 11:03 52.34683 46.67554 6868 ft 163 kts 24°
2026-04-26 11:03 52.35647 46.68541 6872 ft 163 kts 24°
2026-04-26 11:04 52.36609 46.69525 6868 ft 163 kts 23°
2026-04-26 11:04 52.37560 46.70496 6872 ft 163 kts 23°
2026-04-26 11:04 52.38527 46.71486 6869 ft 164 kts 24°
2026-04-26 11:04 52.39496 46.72474 6867 ft 164 kts 24°
2026-04-26 11:05 52.40461 46.73469 6871 ft 163 kts 24°
2026-04-26 11:05 52.41426 46.74456 6872 ft 164 kts 24°
2026-04-26 11:05 52.42389 46.75443 6867 ft 163 kts 23°
2026-04-26 11:05 52.43353 46.76431 6869 ft 165 kts 23°
2026-04-26 11:06 52.44330 46.77435 6868 ft 166 kts 24°
2026-04-26 11:06 52.44990 46.78115 6864 ft 165 kts 23°
2026-04-26 11:06 52.46278 46.79438 6868 ft 165 kts 24°
2026-04-26 11:06 52.47251 46.80438 6861 ft 165 kts 24°
2026-04-26 11:07 52.48223 46.81438 6867 ft 165 kts 24°
2026-04-26 11:07 52.49195 46.82439 6868 ft 165 kts 24°
2026-04-26 11:07 52.50165 46.83438 6862 ft 165 kts 23°
2026-04-26 11:07 52.51172 46.84311 6857 ft 164 kts 19°
2026-04-26 11:08 52.52176 46.85179 6861 ft 163 kts 19°
2026-04-26 11:08 52.53175 46.86046 6859 ft 161 kts 19°
2026-04-26 11:08 52.54171 46.86902 6847 ft 162 kts 19°
2026-04-26 11:08 52.55173 46.87767 6861 ft 163 kts 19°
2026-04-26 11:09 52.56162 46.88620 6862 ft 163 kts 19°
2026-04-26 11:09 52.56843 46.89203 6861 ft 164 kts 19°
2026-04-26 11:09 52.58182 46.90363 6850 ft 164 kts 19°
2026-04-26 11:09 52.59186 46.91230 6861 ft 163 kts 19°
2026-04-26 11:10 52.59857 46.91810 6862 ft 164 kts 19°
2026-04-26 11:10 52.60871 46.92685 6855 ft 164 kts 19°
2026-04-26 11:10 52.61882 46.93560 6860 ft 164 kts 19°
2026-04-26 11:10 52.62899 46.94441 6864 ft 166 kts 20°
2026-04-26 11:11 52.63926 46.95328 6864 ft 167 kts 19°
2026-04-26 11:11 52.64958 46.96223 6865 ft 168 kts 19°
2026-04-26 11:11 52.65991 46.97121 6862 ft 168 kts 20°
2026-04-26 11:11 52.67021 46.98016 6856 ft 166 kts 19°
2026-04-26 11:12 52.68040 46.98899 6852 ft 165 kts 19°
2026-04-26 11:12 52.69056 46.99780 6846 ft 165 kts 19°
2026-04-26 11:12 52.70069 47.00661 6845 ft 164 kts 19°
2026-04-26 11:12 52.71077 47.01536 6853 ft 163 kts 19°
2026-04-26 11:13 52.72080 47.02409 6853 ft 163 kts 19°
2026-04-26 11:13 52.73079 47.03279 6851 ft 162 kts 19°
2026-04-26 11:13 52.74078 47.04148 6844 ft 162 kts 19°
2026-04-26 11:13 52.75082 47.05022 6847 ft 163 kts 20°
2026-04-26 11:14 52.76089 47.05900 6849 ft 163 kts 19°
2026-04-26 11:14 52.77092 47.06774 6851 ft 163 kts 19°
2026-04-26 11:14 52.78082 47.07638 6848 ft 163 kts 20°
2026-04-26 11:14 52.79095 47.08523 6852 ft 163 kts 20°
2026-04-26 11:15 52.80101 47.09400 6851 ft 164 kts 19°
2026-04-26 11:15 52.81098 47.10271 6842 ft 164 kts 19°
2026-04-26 11:15 52.82104 47.11152 6844 ft 163 kts 20°
2026-04-26 11:15 52.83109 47.12032 6846 ft 163 kts 19°
2026-04-26 11:16 52.84118 47.12914 6848 ft 164 kts 19°
2026-04-26 11:16 52.85128 47.13799 6847 ft 164 kts 19°
2026-04-26 11:16 52.86135 47.14681 6844 ft 164 kts 20°
2026-04-26 11:16 52.87146 47.15568 6846 ft 165 kts 20°
2026-04-26 11:17 52.88158 47.16457 6843 ft 165 kts 19°
2026-04-26 11:17 52.89174 47.17348 6840 ft 166 kts 19°
2026-04-26 11:17 52.90193 47.18244 6834 ft 166 kts 19°
2026-04-26 11:17 52.91210 47.19138 6845 ft 165 kts 19°
2026-04-26 11:18 52.92225 47.20029 6836 ft 165 kts 19°
2026-04-26 11:18 52.93236 47.20921 6844 ft 164 kts 20°
2026-04-26 11:18 52.94248 47.21813 6841 ft 165 kts 20°
2026-04-26 11:18 52.95248 47.22692 6842 ft 165 kts 20°
2026-04-26 11:19 52.96262 47.23586 6843 ft 165 kts 20°
2026-04-26 11:19 52.97279 47.24482 6845 ft 166 kts 20°
2026-04-26 11:19 52.98294 47.25379 6837 ft 165 kts 19°
2026-04-26 11:19 52.99309 47.26273 6840 ft 165 kts 19°
2026-04-26 11:20 53.00326 47.27172 6841 ft 166 kts 19°
2026-04-26 11:20 53.01014 47.27783 6844 ft 166 kts 19°
2026-04-26 11:20 53.02374 47.28979 6843 ft 168 kts 19°
2026-04-26 11:20 53.03412 47.29896 6847 ft 170 kts 20°
2026-04-26 11:21 53.04459 47.30824 6843 ft 170 kts 20°
2026-04-26 11:21 53.05504 47.31752 6848 ft 170 kts 20°
2026-04-26 11:21 53.06557 47.32686 6841 ft 173 kts 20°
2026-04-26 11:21 53.07614 47.33621 6837 ft 171 kts 20°
2026-04-26 11:22 53.08656 47.34548 6841 ft 169 kts 20°
2026-04-26 11:22 53.09686 47.35462 6839 ft 168 kts 20°
2026-04-26 11:22 53.10719 47.36371 6843 ft 169 kts 19°
2026-04-26 11:22 53.11756 47.37297 6840 ft 170 kts 20°
2026-04-26 11:23 53.12804 47.38234 6835 ft 171 kts 20°
2026-04-26 11:23 53.13849 47.39166 6836 ft 170 kts 20°
2026-04-26 11:23 53.14887 47.40085 6836 ft 169 kts 20°
2026-04-26 11:23 53.15912 47.40997 6840 ft 169 kts 20°
2026-04-26 11:24 53.16950 47.41923 6836 ft 169 kts 20°
2026-04-26 11:24 53.17984 47.42843 6841 ft 169 kts 20°
2026-04-26 11:24 53.19018 47.43765 6835 ft 169 kts 20°
2026-04-26 11:24 53.20062 47.44697 6834 ft 171 kts 21°
2026-04-26 11:25 53.21112 47.45631 6835 ft 170 kts 20°
2026-04-26 11:25 53.22154 47.46564 6835 ft 170 kts 20°
2026-04-26 11:25 53.23203 47.47503 6833 ft 172 kts 20°
2026-04-26 11:25 53.24254 47.48442 6835 ft 171 kts 20°
2026-04-26 11:26 53.25299 47.49380 6832 ft 170 kts 20°
2026-04-26 11:26 53.26344 47.50312 6834 ft 171 kts 20°
2026-04-26 11:26 53.27398 47.51253 6828 ft 172 kts 20°
2026-04-26 11:26 53.28448 47.52196 6833 ft 171 kts 20°
2026-04-26 11:27 53.29496 47.53138 6834 ft 171 kts 20°
2026-04-26 11:27 53.30544 47.54079 6833 ft 171 kts 20°
2026-04-26 11:27 53.31585 47.55013 6827 ft 169 kts 20°
2026-04-26 11:27 53.32623 47.55944 6835 ft 170 kts 20°
2026-04-26 11:28 53.33679 47.56891 6838 ft 174 kts 20°
2026-04-26 11:28 53.34749 47.57852 6840 ft 175 kts 20°
2026-04-26 11:28 53.35823 47.58822 6837 ft 176 kts 20°
2026-04-26 11:28 53.36908 47.59794 6836 ft 177 kts 20°
2026-04-26 11:29 53.37994 47.60774 6842 ft 178 kts 20°
2026-04-26 11:29 53.39086 47.61758 6838 ft 178 kts 21°
2026-04-26 11:29 53.40171 47.62739 6830 ft 176 kts 20°
2026-04-26 11:29 53.41224 47.63693 6831 ft 173 kts 20°
2026-04-26 11:30 53.42273 47.64640 6833 ft 170 kts 20°
2026-04-26 11:30 53.42978 47.65277 6831 ft 170 kts 20°
2026-04-26 11:30 53.44356 47.66519 6827 ft 169 kts 20°
2026-04-26 11:30 53.45391 47.67452 6830 ft 169 kts 20°
2026-04-26 11:31 53.46430 47.68393 6836 ft 171 kts 20°
2026-04-26 11:31 53.47484 47.69343 6842 ft 173 kts 21°
2026-04-26 11:31 53.48580 47.70156 6835 ft 172 kts 13°
2026-04-26 11:31 53.49692 47.70892 6832 ft 172 kts 14°
2026-04-26 11:32 53.50801 47.71625 6834 ft 170 kts 13°
2026-04-26 11:32 53.51899 47.72350 6828 ft 169 kts 13°
2026-04-26 11:32 53.52993 47.73071 6827 ft 169 kts 12°
2026-04-26 11:32 53.54089 47.73791 6826 ft 169 kts 13°
2026-04-26 11:33 53.55187 47.74518 6828 ft 170 kts 13°
2026-04-26 11:33 53.56287 47.75246 6832 ft 170 kts 13°
2026-04-26 11:33 53.57388 47.75975 6821 ft 170 kts 13°
2026-04-26 11:33 53.58489 47.76705 6827 ft 170 kts 13°
2026-04-26 11:34 53.59595 47.77438 6825 ft 171 kts 13°
2026-04-26 11:34 53.60704 47.78172 6826 ft 171 kts 13°
2026-04-26 11:34 53.61812 47.78906 6821 ft 171 kts 13°
2026-04-26 11:34 53.62921 47.79641 6820 ft 171 kts 13°
2026-04-26 11:35 53.64026 47.80378 6825 ft 170 kts 13°
2026-04-26 11:35 53.65120 47.81105 6828 ft 169 kts 13°
2026-04-26 11:35 53.66212 47.81831 6818 ft 169 kts 13°
2026-04-26 11:35 53.66935 47.82311 6820 ft 169 kts 13°
2026-04-26 11:36 53.68394 47.83282 6822 ft 168 kts 13°
2026-04-26 11:36 53.69480 47.84005 6823 ft 168 kts 13°
2026-04-26 11:36 53.70589 47.84444 6820 ft 160 kts 353°
2026-04-26 11:36 53.71697 47.84470 6822 ft 160 kts 351°
2026-04-26 11:37 53.72794 47.84487 6820 ft 160 kts 351°
2026-04-26 11:37 53.73908 47.84502 6822 ft 160 kts 351°
2026-04-26 11:37 53.75026 47.84517 6816 ft 161 kts 351°
2026-04-26 11:37 53.76145 47.84535 6819 ft 160 kts 351°
2026-04-26 11:38 53.77255 47.84552 6816 ft 160 kts 351°
2026-04-26 11:38 53.78368 47.84568 6810 ft 160 kts 351°
2026-04-26 11:38 53.79476 47.84584 6812 ft 159 kts 351°
2026-04-26 11:38 53.80580 47.84601 6814 ft 158 kts 351°
2026-04-26 11:39 53.81681 47.84618 6808 ft 158 kts 351°
2026-04-26 11:39 53.82781 47.84634 6813 ft 158 kts 351°
2026-04-26 11:39 53.83881 47.84650 6808 ft 158 kts 351°
2026-04-26 11:39 53.84979 47.84666 6809 ft 158 kts 351°
2026-04-26 11:40 53.86077 47.84683 6809 ft 158 kts 351°
2026-04-26 11:40 53.87178 47.84700 6810 ft 159 kts 351°
2026-04-26 11:40 53.88283 47.84714 6806 ft 159 kts 351°
2026-04-26 11:40 53.89210 47.84729 6804 ft 159 kts 351°
2026-04-26 11:41 53.90313 47.84748 6811 ft 158 kts 351°
2026-04-26 11:42 53.98003 47.84864 6806 ft 159 kts 351°
2026-04-26 11:43 53.99119 47.84880 6806 ft 160 kts 351°
2026-04-26 11:43 54.00240 47.84896 6807 ft 161 kts 351°
2026-04-26 11:43 54.01348 47.84914 6802 ft 161 kts 351°
2026-04-26 11:43 54.02477 47.84931 6804 ft 162 kts 351°
2026-04-26 11:44 54.03608 47.84947 6802 ft 163 kts 351°
2026-04-26 11:44 54.04742 47.84964 6801 ft 163 kts 351°
2026-04-26 11:44 54.05874 47.84983 6791 ft 162 kts 351°
2026-04-26 11:44 54.06997 47.85001 6796 ft 161 kts 351°
2026-04-26 11:45 54.08116 47.85014 6797 ft 161 kts 351°
2026-04-26 11:45 54.09236 47.85031 6795 ft 161 kts 351°
2026-04-26 11:45 54.10361 47.85049 6790 ft 162 kts 351°
2026-04-26 11:45 54.11486 47.85066 6791 ft 162 kts 352°
2026-04-26 11:46 54.12599 47.85084 6792 ft 162 kts 352°
2026-04-26 11:46 54.13721 47.85102 6789 ft 161 kts 352°
2026-04-26 11:46 54.14843 47.85120 6791 ft 161 kts 352°
2026-04-26 11:46 54.15958 47.85137 6790 ft 160 kts 351°
2026-04-26 11:47 54.17074 47.85152 6790 ft 160 kts 352°
2026-04-26 11:47 54.18190 47.85169 6791 ft 160 kts 352°
2026-04-26 11:47 54.19304 47.85188 6790 ft 160 kts 352°
2026-04-26 11:47 54.20420 47.85203 6789 ft 161 kts 352°
2026-04-26 11:48 54.21540 47.85354 6778 ft 163 kts
2026-04-26 11:48 54.22566 47.86176 6628 ft 162 kts 30°
2026-04-26 11:48 54.23391 47.87376 6599 ft 152 kts 35°
2026-04-26 11:48 54.24190 47.88567 6441 ft 153 kts 36°
2026-04-26 11:49 54.24989 47.89769 6303 ft 153 kts 36°
2026-04-26 11:49 54.25786 47.90973 6155 ft 153 kts 36°
2026-04-26 11:49 54.26583 47.92176 5992 ft 153 kts 37°
2026-04-26 11:49 54.27378 47.93377 5823 ft 153 kts 37°
2026-04-26 11:50 54.28173 47.94575 5680 ft 152 kts 37°
2026-04-26 11:50 54.28954 47.95756 5531 ft 152 kts 37°
2026-04-26 11:50 54.29743 47.96948 5396 ft 151 kts 37°
2026-04-26 11:50 54.30534 47.98145 5246 ft 151 kts 38°
2026-04-26 11:51 54.31321 47.99338 5125 ft 151 kts 38°
2026-04-26 11:51 54.32106 48.00524 5028 ft 150 kts 38°
2026-04-26 11:51 54.32891 48.01713 4911 ft 151 kts 38°
2026-04-26 11:51 54.33675 48.02902 4781 ft 151 kts 39°
2026-04-26 11:52 54.34459 48.04091 4657 ft 150 kts 39°
2026-04-26 11:52 54.34978 48.04876 4569 ft 150 kts 39°
2026-04-26 11:52 54.36020 48.06456 4386 ft 149 kts 40°
2026-04-26 11:52 54.36801 48.07643 4285 ft 150 kts 40°
2026-04-26 11:53 54.37583 48.08831 4146 ft 150 kts 40°
2026-04-26 11:53 54.38368 48.10022 4041 ft 150 kts 40°
2026-04-26 11:53 54.39150 48.11213 3935 ft 151 kts 41°
2026-04-26 11:54 54.40703 48.13578 3742 ft 149 kts 41°
2026-04-26 11:54 54.41475 48.14755 3592 ft 149 kts 42°
2026-04-26 11:54 54.42251 48.15937 3440 ft 149 kts 42°
2026-04-26 11:54 54.43027 48.17119 3325 ft 149 kts 41°
2026-04-26 11:55 54.43808 48.18308 3168 ft 151 kts 43°
2026-04-26 11:55 54.44415 48.19725 3020 ft 145 kts 79°
2026-04-26 11:55 54.44366 48.21323 2881 ft 127 kts 127°
2026-04-26 11:55 54.43797 48.22308 2772 ft 113 kts 158°
2026-04-26 11:56 54.43112 48.22961 2666 ft 113 kts 161°
2026-04-26 11:56 54.42427 48.23596 2640 ft 112 kts 161°
2026-04-26 11:56 54.41978 48.24036 2604 ft 113 kts 159°
2026-04-26 11:56 54.41278 48.24761 2582 ft 125 kts 157°
2026-04-26 11:57 54.40494 48.25602 2406 ft 138 kts 155°
2026-04-26 11:57 54.39677 48.26499 2225 ft 139 kts 154°
2026-04-26 11:57 54.38590 48.27706 2013 ft 140 kts 154°
2026-04-26 11:57 54.37803 48.28589 2001 ft 130 kts 155°
2026-04-26 11:58 54.37300 48.29147 2005 ft 125 kts 155°
2026-04-26 11:58 54.36582 48.29941 2001 ft 121 kts 156°
2026-04-26 11:58 54.35849 48.30540 1999 ft 114 kts 171°
2026-04-26 11:58 54.35086 48.30677 2006 ft 109 kts 187°
2026-04-26 11:59 54.34355 48.30382 2001 ft 107 kts 205°
2026-04-26 11:59 54.33726 48.29738 1888 ft 103 kts 209°
2026-04-26 11:59 54.33148 48.29115 1657 ft 94 kts 212°
2026-04-26 11:59 54.32620 48.28520 1463 ft 88 kts 207°
2026-04-26 12:00 54.32111 48.28022 1305 ft 84 kts 208°
2026-04-26 12:00 54.31625 48.27512 1227 ft 81 kts 208°
2026-04-26 12:00 54.31142 48.27005 1101 ft 82 kts 207°
2026-04-26 12:00 54.30664 48.26481 967 ft 83 kts 209°
2026-04-26 12:01 54.30189 48.25953 857 ft 82 kts 208°
2026-04-26 12:01 54.29709 48.25438 769 ft 82 kts 209°
2026-04-26 12:01 54.29223 48.24919 657 ft 84 kts 210°
2026-04-26 12:01 54.28731 48.24390 553 ft 83 kts 212°
2026-04-26 12:02 54.28249 48.23877 432 ft 81 kts 212°
2026-04-26 12:02 54.27846 48.23449 400 ft 52 kts 210°
2026-04-26 12:02 54.27606 48.23192 403 ft 32 kts 212°
2026-04-26 12:02 54.27452 48.23026 402 ft 21 kts 212°
2026-04-26 12:03 54.27347 48.22910 400 ft 16 kts 208°
2026-04-26 12:03 54.27210 48.22766 400 ft 26 kts 211°
2026-04-26 12:03 54.27073 48.22756 400 ft 16 kts 167°
2026-04-26 12:03 54.26978 48.22795 400 ft 12 kts 168°
2026-04-26 12:04 54.26919 48.22866 400 ft 12 kts 73°
2026-04-26 12:04 54.26994 48.22967 399 ft 13 kts 31°
2026-04-26 12:04 54.27011 48.23073 399 ft 10 kts 118°
2026-04-26 12:04 54.26970 48.23193 399 ft 13 kts 125°
2026-04-26 12:05 54.26952 48.23329 399 ft 15 kts 39°
2026-04-26 12:05 54.27039 48.23425 399 ft 14 kts 33°
2026-04-26 12:05 54.27105 48.23496 399 ft 10 kts 31°
2026-04-26 12:05 54.27152 48.23545 399 ft 8 kts 31°
2026-04-26 12:06 54.27145 48.23625 399 ft 10 kts 124°
2026-04-26 12:06 54.27114 48.23728 399 ft 6 kts 34°
2026-04-26 12:06 54.27126 48.23741 399 ft 0 kts 34°